Los Alamos, NM

8:58 PM MST on December 12, 2017 (GMT -0700)
Los Alamos

Weather History for KLAM - February, 2013

Change the Weather History Date:

Sunday, February 10, 2013

  Actual Average Record
Temperature  
Mean Temperature 28 °F -  
Max Temperature 33 °F 42 °F 65 °F (2017)
Min Temperature 22 °F 20 °F -2 °F (1986)
Degree Days  
Heating Degree Days 38    
Moisture  
Dew Point 15 °F    
Average Humidity 57    
Maximum Humidity 73    
Minimum Humidity 36    
Precipitation  
Precipitation 0.00 in - - ()
Sea Level Pressure  
Sea Level Pressure 29.84 in    
Wind  
Wind Speed 1 mph (WSW)    
Max Wind Speed 14 mph    
Max Gust Speed 20 mph    
Visibility 10 miles    
Events Snow    
Averages and records for this station are not official NWS values.
T = Trace of Precipitation, MM = Missing Value Source: NWS Daily Summary

Daily Weather History Graph

Daily Weather History Graph

Search for Another Location

Airport or City:

Trip Planner

Search our weather history database for the weather conditions in past years. The results will help you decide how hot, cold, wet, or windy it might be!

Date:

Astronomy

Feb. 10, 2013 Rise Set
Actual Time 6:57 AM MST 5:41 PM MST
Civil Twilight 6:30 AM MST 6:08 PM MST
Nautical Twilight 6:00 AM MST 6:38 PM MST
Astronomical Twilight 5:30 AM MST 7:08 PM MST
Moon 6:51 AM MST (2/10) 6:32 PM MST (2/10)
Length of Visible Light 11h 37m
Length of Day
10h 44m
New Moon, 0% of the Moon is Illuminated
Feb 10
New Moon
Feb 17
First Quarter
Feb 25
Full
Mar 4
Last Quarter
Mar 11
New

Hourly Weather History & Observations

Time (MST) Temp. Windchill Dew Point Humidity Pressure Visibility Wind Dir Wind Speed Gust Speed Precip Events Conditions
12:15 AM 26.8 °F - 15.3 °F 62% 29.74 in 10.0 mi Calm Calm - N/A   Overcast
12:35 AM 26.6 °F - 14.7 °F 61% 29.74 in 10.0 mi Calm Calm - N/A   Overcast
12:55 AM 27.0 °F - 14.2 °F 59% 29.74 in 10.0 mi Calm Calm - N/A   Overcast
1:15 AM 27.0 °F - 12.7 °F 55% 29.75 in 10.0 mi Calm Calm - N/A   Overcast
1:35 AM 26.6 °F 22.6 °F 13.1 °F 57% 29.75 in 10.0 mi South 3.5 mph - N/A   Overcast
1:55 AM 26.4 °F 22.4 °F 12.7 °F 56% 29.75 in 10.0 mi WSW 3.5 mph - N/A   Overcast
2:15 AM 26.2 °F - 12.2 °F 55% 29.75 in 10.0 mi Calm Calm - N/A   Scattered Clouds
2:35 AM 25.5 °F - 12.9 °F 59% 29.76 in 10.0 mi Calm Calm - N/A   Scattered Clouds
2:55 AM 25.0 °F - 14.0 °F 63% 29.76 in - Calm Calm - N/A   Scattered Clouds
3:15 AM 24.8 °F - 14.5 °F 65% 29.76 in 10.0 mi Calm Calm - N/A   Scattered Clouds
3:35 AM 24.8 °F - 14.2 °F 64% 29.76 in 10.0 mi Calm Calm - N/A   Mostly Cloudy
3:55 AM 24.8 °F - 14.2 °F 64% 29.76 in 10.0 mi Calm Calm - N/A   Overcast
4:15 AM 24.4 °F - 14.2 °F 65% 29.76 in 10.0 mi Calm Calm - N/A   Mostly Cloudy
4:35 AM 23.9 °F - 14.4 °F 67% 29.76 in 10.0 mi Calm Calm - N/A   Scattered Clouds
4:55 AM 23.9 °F - 14.4 °F 67% 29.77 in 10.0 mi Calm Calm - N/A   Clear
5:15 AM 23.4 °F - 14.9 °F 70% 29.77 in 10.0 mi Calm Calm - N/A   Clear
5:35 AM 23.0 °F - 15.1 °F 72% 29.77 in 10.0 mi Calm Calm - N/A   Clear
5:55 AM 22.5 °F - 14.9 °F 73% 29.78 in 10.0 mi Calm Calm - N/A   Clear
6:15 AM 22.3 °F - 14.7 °F 73% 29.78 in 10.0 mi Calm Calm - N/A   Clear
6:35 AM 22.3 °F - 14.9 °F 73% 29.79 in 10.0 mi Calm Calm - N/A   Scattered Clouds
6:55 AM 22.3 °F - 14.9 °F 73% 29.80 in 10.0 mi Calm Calm - N/A   Mostly Cloudy
7:15 AM 22.6 °F - 14.7 °F 72% 29.80 in 10.0 mi Calm Calm - N/A   Mostly Cloudy
7:35 AM 23.4 °F - 14.9 °F 70% 29.81 in 10.0 mi Calm Calm - N/A   Mostly Cloudy
7:55 AM 24.6 °F - 15.3 °F 68% 29.82 in 10.0 mi Calm Calm - N/A   Overcast
8:15 AM 26.2 °F - 15.4 °F 64% 29.83 in 10.0 mi Calm Calm - N/A   Overcast
8:35 AM 26.8 °F - 15.3 °F 62% 29.84 in 10.0 mi Calm Calm - N/A   Overcast
8:55 AM 27.9 °F 20.6 °F 16.2 °F 62% 29.84 in 10.0 mi South 6.9 mph - N/A   Overcast
9:15 AM 28.2 °F 19.5 °F 16.9 °F 63% 29.85 in 10.0 mi SE 9.2 mph - N/A   Overcast
9:35 AM 29.1 °F 25.4 °F 16.5 °F 59% 29.85 in 10.0 mi South 3.5 mph - N/A   Overcast
9:55 AM 28.8 °F - 12.9 °F 52% 29.86 in 10.0 mi Calm Calm - N/A   Overcast
10:15 AM 29.8 °F - 12.6 °F 49% 29.86 in 10.0 mi Calm Calm - N/A   Overcast
10:35 AM 30.0 °F - 13.8 °F 51% 29.86 in 10.0 mi Calm Calm - N/A   Overcast
10:55 AM 30.0 °F - 12.6 °F 48% 29.87 in 10.0 mi Calm Calm - N/A   Overcast
11:15 AM 30.7 °F 24.9 °F 10.8 °F 43% 29.87 in 10.0 mi WSW 5.8 mph - N/A   Overcast
11:35 AM 31.6 °F 23.1 °F 11.5 °F 43% 29.87 in 10.0 mi WSW 10.4 mph 16.1 mph N/A   Overcast
11:55 AM 31.1 °F 26.4 °F 14.4 °F 50% 29.86 in 10.0 mi West 4.6 mph - N/A Snow Light Snow
12:15 PM 30.0 °F 25.2 °F 14.9 °F 53% 29.86 in 10.0 mi WNW 4.6 mph - N/A   Mostly Cloudy
12:35 PM 30.6 °F 24.7 °F 13.5 °F 49% 29.85 in 7.0 mi WNW 5.8 mph - N/A Snow Light Snow
12:55 PM 31.3 °F 25.6 °F 15.3 °F 52% 29.85 in 10.0 mi NW 5.8 mph - N/A   Overcast
1:15 PM 32.5 °F - 14.7 °F 48% 29.84 in 10.0 mi Calm Calm - N/A   Mostly Cloudy
1:35 PM 32.7 °F 24.5 °F 14.7 °F 48% 29.83 in 10.0 mi South 10.4 mph 16.1 mph N/A   Overcast
1:55 PM 32.2 °F 22.3 °F 13.5 °F 46% 29.83 in 10.0 mi SSW 13.8 mph 19.6 mph N/A   Overcast
2:15 PM 32.0 °F - 15.1 °F 50% 29.84 in 10.0 mi Calm Calm - N/A   Overcast
2:35 PM 31.3 °F 27.9 °F 16.7 °F 55% 29.84 in 10.0 mi NW 3.5 mph - N/A   Overcast
2:55 PM 32.4 °F - 15.6 °F 50% 29.84 in 10.0 mi Calm Calm - N/A   Mostly Cloudy
3:15 PM 33.3 °F - 8.8 °F 36% 29.84 in 10.0 mi Calm Calm - N/A   Mostly Cloudy
3:35 PM 32.9 °F - 9.5 °F 38% 29.84 in 10.0 mi Calm Calm - N/A   Mostly Cloudy
3:55 PM 33.1 °F - 8.8 °F 36% 29.85 in 10.0 mi Calm Calm - N/A   Mostly Cloudy
4:15 PM 32.2 °F - 11.1 °F 42% 29.86 in 10.0 mi Calm Calm - N/A   Scattered Clouds
4:35 PM 32.4 °F - 11.8 °F 43% 29.87 in 10.0 mi Calm Calm - N/A   Mostly Cloudy
4:55 PM 31.8 °F - 12.9 °F 46% 29.87 in 10.0 mi Calm Calm - N/A   Scattered Clouds
5:15 PM 31.8 °F - 13.5 °F 47% 29.88 in 10.0 mi Calm Calm - N/A   Scattered Clouds
5:35 PM 31.5 °F - 14.0 °F 49% 29.88 in 10.0 mi Calm Calm - N/A   Mostly Cloudy
5:55 PM 31.1 °F - 14.0 °F 49% 29.88 in 10.0 mi Calm Calm - N/A   Mostly Cloudy
6:15 PM 31.1 °F - 13.3 °F 48% 29.89 in 10.0 mi Calm Calm - N/A   Mostly Cloudy
6:35 PM 30.9 °F - 13.6 °F 49% 29.89 in 10.0 mi Calm Calm - N/A   Overcast
6:55 PM 30.7 °F - 13.5 °F 49% 29.89 in 10.0 mi Calm Calm - N/A   Mostly Cloudy
7:15 PM 30.0 °F - 14.4 °F 52% 29.89 in 10.0 mi Calm Calm - N/A   Mostly Cloudy
7:35 PM 30.0 °F - 14.2 °F 52% 29.90 in 10.0 mi Calm Calm - N/A   Overcast
7:55 PM 30.4 °F - 14.5 °F 52% 29.91 in 10.0 mi Calm Calm - N/A   Overcast
8:15 PM 30.2 °F - 14.7 °F 53% 29.91 in - Calm Calm - N/A   Overcast
8:35 PM 29.5 °F - 16.7 °F 59% 29.92 in - Calm Calm - N/A   Overcast
8:55 PM 29.1 °F - 17.8 °F 63% 29.93 in - Calm Calm - N/A   Overcast
9:15 PM 28.4 °F - 18.5 °F 66% 29.92 in - Calm Calm - N/A   Overcast
9:35 PM 28.4 °F - 18.5 °F 66% 29.93 in - Calm Calm - N/A   Overcast
9:55 PM 28.4 °F - 19.0 °F 68% 29.93 in - Calm Calm - N/A   Overcast
10:15 PM 28.4 °F - 19.0 °F 68% 29.93 in - Calm Calm - N/A   Overcast
10:35 PM 28.8 °F - 18.9 °F 67% 29.93 in - Calm Calm - N/A   Overcast
10:55 PM 28.6 °F - 18.9 °F 67% 29.93 in - Calm Calm - N/A   Overcast
11:15 PM 28.4 °F - 18.5 °F 66% 29.93 in - Calm Calm - N/A   Overcast
11:35 PM 28.8 °F - 17.4 °F 63% 29.93 in - Calm Calm - N/A   Overcast
11:55 PM 28.6 °F - 17.2 °F 63% 29.93 in - Calm Calm - N/A   Overcast